K3CHZ Weather Reports


Display with metric or nautical units.
time (UTC)temp
F
wind
direction
speed
MPH
gust
MPH
rain 1hr
in
rain 24hr
in
rain mn
in
humidity
%
barometer
mb
20260506123715 61 230 0.0 0.0 0.20 0.20 0.20 86 1009.7
20260506123214 62 230 0.0 0.0 0.10 0.10 0.10 85 1010.0
20260506122715 62 230 0.0 0.0 0.10 0.10 0.10 84 1010.0
20260506122220 62 230 0.0 0.0 0.00 0.00 0.00 83 1010.1
20260506121718 62 230 0.0 0.0 0.00 0.00 0.00 82 1010.3
20260506121217 63 230 0.0 0.0 0.00 0.00 0.00 81 1010.3
20260506120717 63 230 0.0 0.0 0.00 0.00 0.00 80 1010.3
20260506120217 63 231 0.0 1.0 0.00 0.00 0.00 79 1010.3
20260506115717 63 231 0.0 1.0 0.00 0.00 0.00 77 1010.2
20260506115217 64 231 0.0 3.0 0.00 0.00 0.00 76 1010.2
20260506114718 64 222 0.0 3.0 0.00 0.00 0.00 75 1010.2
20260506114217 64 220 0.0 3.0 0.00 0.00 0.00 75 1010.2
20260506113717 64 207 0.0 3.0 0.00 0.00 0.00 75 1010.0
20260506113217 64 207 0.0 3.0 0.00 0.00 0.00 74 1009.9
20260506112717 64 196 0.0 3.0 0.00 0.00 0.00 74 1009.9
20260506112217 64 219 1.0 3.0 0.00 0.00 0.00 74 1009.8
20260506111717 64 220 2.0 3.0 0.00 0.00 0.00 74 1009.7
20260506111218 64 209 1.0 5.0 0.00 0.00 0.00 73 1009.6
20260506110718 65 202 2.0 5.0 0.00 0.00 0.00 73 1009.5
20260506110217 65 186 2.0 5.0 0.00 0.00 0.00 72 1009.5
20260506105717 65 200 2.0 5.0 0.00 0.00 0.00 72 1009.4
20260506105217 65 212 2.0 5.0 0.00 0.00 0.00 72 1009.4
20260506104718 65 198 2.0 5.0 0.00 0.00 0.00 72 1009.4
20260506104217 65 222 2.0 5.0 0.00 0.00 0.00 72 1009.4
20260506103718 65 206 0.0 3.0 0.00 0.00 0.00 72 1009.2
20260506103217 65 206 0.0 6.0 0.00 0.00 0.00 72 1009.1
20260506102720 65 203 2.0 6.0 0.00 0.00 0.00 71 1009.2
20260506102220 65 194 1.0 5.0 0.00 0.00 0.00 71 1009.2
20260506101717 65 203 2.0 5.0 0.00 0.00 0.00 71 1009.2
20260506101217 65 198 2.0 5.0 0.00 0.00 0.00 71 1009.2
20260506100718 65 198 3.0 5.0 0.00 0.00 0.00 71 1009.1
20260506100217 65 190 2.0 5.0 0.00 0.00 0.00 71 1009.1
20260506095718 65 197 1.0 5.0 0.00 0.00 0.00 70 1009.2
20260506095217 65 178 0.0 5.0 0.00 0.00 0.00 70 1009.2
20260506094717 65 216 1.0 5.0 0.00 0.00 0.00 70 1009.2
20260506094217 65 204 1.0 5.0 0.00 0.00 0.00 70 1009.3
20260506093718 65 196 2.0 6.0 0.00 0.00 0.00 70 1009.3
20260506093217 65 190 2.0 6.0 0.00 0.00 0.00 70 1009.2
20260506092717 65 202 2.0 6.0 0.00 0.00 0.00 70 1009.1
20260506092217 65 197 1.0 5.0 0.00 0.00 0.00 70 1009.2
20260506091718 65 192 0.0 3.0 0.00 0.00 0.00 70 1009.2
20260506091219 65 211 1.0 3.0 0.00 0.00 0.00 69 1009.2
20260506090718 65 188 1.0 5.0 0.00 0.00 0.00 69 1009.3
20260506090217 66 186 2.0 5.0 0.00 0.00 0.00 68 1009.3
20260506085717 66 192 1.0 5.0 0.00 0.00 0.00 68 1009.4
20260506085218 66 173 0.0 5.0 0.00 0.00 0.00 68 1009.4
20260506084718 66 184 0.0 5.0 0.00 0.00 0.00 67 1009.5
20260506084217 66 184 0.0 5.0 0.00 0.00 0.00 67 1009.5
20260506083718 66 197 1.0 5.0 0.00 0.00 0.00 66 1009.5
20260506083217 66 197 2.0 5.0 0.00 0.00 0.00 66 1009.5
20260506082718 66 195 1.0 5.0 0.00 0.00 0.00 66 1009.5
20260506082218 67 184 2.0 5.0 0.00 0.00 0.00 66 1009.5
20260506081718 67 184 1.0 5.0 0.00 0.00 0.00 65 1009.5
20260506081218 67 193 1.0 3.0 0.00 0.00 0.00 65 1009.4
20260506080718 67 193 1.0 3.0 0.00 0.00 0.00 64 1009.3
20260506080217 67 199 1.0 3.0 0.00 0.00 0.00 64 1009.2
20260506073217 68 193 0.0 5.0 0.00 0.00 0.00 62 1009.3
20260506072718 68 189 0.0 3.0 0.00 0.00 0.00 61 1009.4
20260506072221 68 186 1.0 3.0 0.00 0.00 0.00 61 1009.5
20260506071721 68 184 1.0 3.0 0.00 0.00 0.00 61 1009.6
20260506071220 69 199 1.0 3.0 0.00 0.00 0.00 60 1009.6
20260506070722 69 200 1.0 3.0 0.00 0.00 0.00 60 1009.6
20260506070221 69 201 2.0 5.0 0.00 0.00 0.00 59 1009.7
20260506062221 70 194 1.0 5.0 0.00 0.00 0.00 57 1010.0
20260506061722 70 194 2.0 5.0 0.00 0.00 0.00 57 1010.1
20260506061220 70 203 1.0 6.0 0.00 0.00 0.00 57 1010.1
20260506060721 70 214 3.0 6.0 0.00 0.00 0.00 56 1010.1
20260506060221 70 201 2.0 3.0 0.00 0.00 0.00 56 1010.1
20260506051220 71 191 2.0 5.0 0.00 0.00 0.00 55 1010.4
20260506050721 71 199 1.0 5.0 0.00 0.00 0.00 54 1010.6
20260506050221 71 201 3.0 6.0 0.00 0.00 0.00 54 1010.6
20260506044722 71 200 2.0 6.0 0.00 0.00 0.00 53 1010.5
20260506044220 71 180 2.0 6.0 0.00 0.00 0.00 53 1010.5
20260506043723 71 194 3.0 6.0 0.00 0.00 0.00 53 1010.5
20260506043222 71 206 3.0 8.0 0.00 0.00 0.00 53 1010.6
20260506042720 71 190 3.0 8.0 0.00 0.00 0.00 53 1010.6
20260506042221 71 196 3.0 7.0 0.00 0.00 0.00 52 1010.5
20260506041721 71 189 2.0 7.0 0.00 0.00 0.00 52 1010.6
20260506041220 72 196 3.0 7.0 0.00 0.00 0.00 52 1010.6
20260506040723 72 198 3.0 7.0 0.00 0.00 0.00 51 1010.5
20260506040222 72 203 4.0 8.0 0.00 0.00 0.00 51 1010.5
20260506035721 72 203 3.0 8.0 0.00 0.00 0.00 51 1010.5
20260506035221 72 210 3.0 8.0 0.00 0.00 0.00 51 1010.5
20260506034720 72 197 2.0 7.0 0.00 0.00 0.00 51 1010.5
20260506034220 72 190 2.0 7.0 0.00 0.00 0.00 51 1010.4
20260506033721 72 184 1.0 7.0 0.00 0.00 0.00 50 1010.4
20260506033220 72 213 3.0 7.0 0.00 0.00 0.00 50 1010.6
20260506032720 72 185 3.0 7.0 0.00 0.00 0.00 50 1010.5
20260506032220 72 188 2.0 6.0 0.00 0.00 0.00 49 1010.5
20260506031721 72 189 1.0 6.0 0.00 0.00 0.00 49 1010.4
20260506031221 72 191 3.0 5.0 0.00 0.00 0.00 48 1010.4
20260506030722 72 196 2.0 5.0 0.00 0.00 0.00 47 1010.4
20260506025720 72 196 1.0 6.0 0.00 0.00 0.00 47 1010.3
20260506025220 72 195 3.0 5.0 0.00 0.00 0.00 47 1010.3
20260506024722 72 190 2.0 6.0 0.00 0.00 0.00 47 1010.4
20260506024220 72 199 3.0 6.0 0.00 0.00 0.00 46 1010.5
20260506023722 72 196 2.0 5.0 0.00 0.00 0.00 45 1010.5
20260506023221 72 195 2.0 5.0 0.00 0.00 0.00 46 1010.5
20260506022715 72 190 1.0 5.0 0.00 0.00 0.00 45 1010.5
20260506022215 72 190 1.0 5.0 0.00 0.00 0.00 44 1010.6
20260506021716 72 190 0.0 3.0 0.00 0.00 0.00 44 1010.6
20260506021215 72 190 0.0 3.0 0.00 0.00 0.00 43 1010.6
20260506020715 72 190 0.0 3.0 0.00 0.00 0.00 42 1010.5
20260506020216 72 190 0.0 3.0 0.00 0.00 0.00 42 1010.4
20260506015715 72 190 0.0 2.0 0.00 0.00 0.00 42 1010.4
20260506015214 73 193 0.0 2.0 0.00 0.00 0.00 40 1010.3
20260506014715 73 198 0.0 2.0 0.00 0.00 0.00 40 1010.3
20260506014214 73 198 0.0 0.0 0.00 0.00 0.00 39 1010.3
20260506013715 74 198 0.0 3.0 0.00 0.00 0.00 39 1010.3
20260506013215 74 198 0.0 3.0 0.00 0.00 0.00 38 1010.2
20260506012715 74 198 1.0 5.0 0.00 0.00 0.00 38 1010.0
20260506012218 74 198 1.0 5.0 0.00 0.00 0.00 37 1010.0
20260506011717 74 198 2.0 5.0 0.00 0.00 0.00 35 1010.0
20260506011218 75 188 2.0 5.0 0.00 0.00 0.00 35 1010.0
20260506010718 75 201 1.0 5.0 0.00 0.00 0.00 35 1010.0
20260506010218 75 191 2.0 3.0 0.00 0.00 0.00 35 1009.9
20260506005719 75 193 2.0 5.0 0.00 0.00 0.00 34 1009.9
20260506005219 75 191 2.0 5.0 0.00 0.00 0.00 34 1009.7
20260506004719 75 195 1.0 5.0 0.00 0.00 0.00 34 1009.7
20260506004218 76 207 3.0 5.0 0.00 0.00 0.00 34 1009.7
20260506003718 75 205 2.0 5.0 0.00 0.00 0.00 34 1009.6
20260506003219 75 202 2.0 3.0 0.00 0.00 0.00 34 1009.6
20260506002718 75 201 2.0 5.0 0.00 0.00 0.00 34 1009.6
20260506002217 76 186 0.0 5.0 0.00 0.00 0.00 34 1009.5
20260506001720 76 202 0.0 5.0 0.00 0.00 0.00 33 1009.5
20260506001218 76 215 0.0 6.0 0.00 0.00 0.00 33 1009.4
20260506000718 77 218 3.0 6.0 0.00 0.00 0.00 33 1009.2
20260506000219 77 213 1.0 6.0 0.00 0.00 0.00 32 1009.3
20260505235717 77 198 2.0 6.0 0.00 0.00 0.00 32 1009.3
20260505235220 77 183 3.0 6.0 0.00 0.00 0.00 32 1009.4
20260505234718 77 204 1.0 6.0 0.00 0.00 0.00 31 1009.3
20260505234219 77 198 2.0 5.0 0.00 0.00 0.00 31 1009.2
20260505233718 78 195 2.0 6.0 0.00 0.00 0.00 30 1009.2
20260505233218 78 222 3.0 7.0 0.00 0.00 0.00 31 1009.1
20260505232718 78 197 3.0 7.0 0.00 0.00 0.00 30 1009.1
20260505232222 78 193 3.0 7.0 0.00 0.00 0.00 30 1009.1
20260505231720 78 209 5.0 7.0 0.00 0.00 0.00 30 1009.2
20260505231221 78 208 5.0 8.0 0.00 0.00 0.00 30 1009.1
20260505230720 78 241 5.0 8.0 0.00 0.00 0.00 31 1009.2
20260505230221 78 187 3.0 7.0 0.00 0.00 0.00 31 1009.2
20260505225721 78 170 3.0 8.0 0.00 0.00 0.00 32 1009.1
20260505225220 78 199 3.0 8.0 0.00 0.00 0.00 30 1009.2
20260505224720 78 212 2.0 6.0 0.00 0.00 0.00 31 1009.4
20260505224223 79 216 3.0 7.0 0.00 0.00 0.00 31 1009.4
20260505223721 79 197 3.0 8.0 0.00 0.00 0.00 32 1009.3
20260505223221 79 198 3.0 8.0 0.00 0.00 0.00 32 1009.3
20260505222718 79 196 2.0 9.0 0.00 0.00 0.00 31 1009.4
20260505222218 79 220 4.0 9.0 0.00 0.00 0.00 30 1009.3
20260505221717 79 185 3.0 9.0 0.00 0.00 0.00 31 1009.3
20260505221218 79 196 3.0 8.0 0.00 0.00 0.00 32 1009.3
20260505220718 79 178 3.0 8.0 0.00 0.00 0.00 31 1009.3
20260505220219 79 195 5.0 7.0 0.00 0.00 0.00 31 1009.2
20260505215717 79 213 4.0 7.0 0.00 0.00 0.00 31 1009.2
20260505215219 79 221 2.0 8.0 0.00 0.00 0.00 31 1009.2
20260505214719 79 201 4.0 10.0 0.00 0.00 0.00 31 1009.2
20260505214217 79 186 6.0 10.0 0.00 0.00 0.00 31 1009.2
20260505213717 80 190 4.0 7.0 0.00 0.00 0.00 33 1009.1
20260505213218 80 207 3.0 9.0 0.00 0.00 0.00 34 1009.2
20260505212718 80 218 3.0 9.0 0.00 0.00 0.00 32 1009.1
20260505212221 80 206 3.0 9.0 0.00 0.00 0.00 35 1009.1
20260505211721 80 192 2.0 6.0 0.00 0.00 0.00 34 1009.0
20260505211221 80 193 3.0 9.0 0.00 0.00 0.00 33 1009.0
20260505210720 81 203 3.0 9.0 0.00 0.00 0.00 33 1009.0
20260505210221 80 192 1.0 6.0 0.00 0.00 0.00 32 1008.9
20260505205720 80 205 3.0 8.0 0.00 0.00 0.00 31 1008.9
20260505205221 80 190 3.0 8.0 0.00 0.00 0.00 31 1009.0
20260505204721 80 195 3.0 9.0 0.00 0.00 0.00 30 1009.0
20260505204221 81 208 3.0 9.0 0.00 0.00 0.00 29 1009.0
20260505203721 81 208 5.0 9.0 0.00 0.00 0.00 30 1009.0
20260505203222 81 234 3.0 8.0 0.00 0.00 0.00 31 1009.0
20260505202721 81 202 3.0 6.0 0.00 0.00 0.00 31 1009.0
20260505202503 81 184 2.0 8.0 0.00 0.00 0.00 31 1009.0
20260505202004 81 254 1.0 9.0 0.00 0.00 0.00 31 1009.0
20260505201503 81 215 3.0 9.0 0.00 0.00 0.00 31 1009.0
20260505201005 81 195 3.0 9.0 0.00 0.00 0.00 30 1009.1
20260505200218 81 208 5.0 9.0 0.00 0.00 0.00 29 1009.1
20260505195718 81 184 3.0 9.0 0.00 0.00 0.00 30 1009.4
20260505195217 81 213 6.0 9.0 0.00 0.00 0.00 29 1009.4
20260505194718 81 199 4.0 8.0 0.00 0.00 0.00 31 1009.4
20260505194218 81 182 3.0 10.0 0.00 0.00 0.00 30 1009.4
20260505193718 81 189 6.0 10.0 0.00 0.00 0.00 30 1009.5
20260505193218 81 201 3.0 9.0 0.00 0.00 0.00 31 1009.4
20260505192720 81 190 5.0 9.0 0.00 0.00 0.00 31 1009.5
20260505192218 81 210 5.0 9.0 0.00 0.00 0.00 32 1009.6
20260505191720 81 214 4.0 9.0 0.00 0.00 0.00 32 1009.7
20260505191218 81 186 3.0 8.0 0.00 0.00 0.00 32 1009.8
20260505190717 81 175 3.0 8.0 0.00 0.00 0.00 32 1009.8
20260505190218 81 199 3.0 8.0 0.00 0.00 0.00 32 1009.9
20260505185718 81 196 4.0 8.0 0.00 0.00 0.00 31 1010.0
20260505185217 81 198 5.0 9.0 0.00 0.00 0.00 33 1009.9
20260505184718 81 194 3.0 9.0 0.00 0.00 0.00 35 1009.9
20260505184217 81 204 3.0 8.0 0.00 0.00 0.00 32 1010.0
20260505183719 81 204 3.0 8.0 0.00 0.00 0.00 31 1010.0
20260505183218 81 198 4.0 8.0 0.00 0.00 0.00 35 1010.5
20260505182715 81 204 3.0 8.0 0.00 0.00 0.00 32 1010.5
20260505182215 81 220 2.0 7.0 0.00 0.00 0.00 33 1010.5
20260505181715 81 182 3.0 7.0 0.00 0.00 0.00 34 1010.5
20260505181215 80 190 3.0 7.0 0.00 0.00 0.00 34 1010.5
20260505180715 80 222 3.0 6.0 0.00 0.00 0.00 36 1010.6
20260505180216 80 201 1.0 8.0 0.00 0.00 0.00 36 1010.6
20260505175716 79 233 2.0 8.0 0.00 0.00 0.00 39 1010.6
20260505175216 79 196 2.0 6.0 0.00 0.00 0.00 40 1010.6
20260505174715 79 201 2.0 6.0 0.00 0.00 0.00 42 1010.7
20260505174215 79 184 4.0 7.0 0.00 0.00 0.00 43 1010.9
20260505173715 79 156 3.0 7.0 0.00 0.00 0.00 41 1010.9
20260505173215 79 187 3.0 6.0 0.00 0.00 0.00 39 1010.9
20260505172718 79 198 1.0 5.0 0.00 0.00 0.00 40 1010.9
20260505172219 79 218 2.0 6.0 0.00 0.00 0.00 40 1010.9
20260505171718 79 227 2.0 6.0 0.00 0.00 0.00 41 1011.0
20260505171218 79 251 2.0 3.0 0.00 0.00 0.00 41 1011.0
20260505170717 79 187 2.0 9.0 0.00 0.00 0.00 38 1011.1
20260505170218 78 264 1.0 9.0 0.00 0.00 0.00 38 1011.3
20260505165719 78 219 0.0 6.0 0.00 0.00 0.00 36 1011.3
20260505165218 78 223 1.0 6.0 0.00 0.00 0.00 38 1011.3
20260505164717 78 191 3.0 7.0 0.00 0.00 0.00 42 1011.3
20260505164218 78 193 3.0 7.0 0.00 0.00 0.00 40 1011.6
20260505163718 78 171 2.0 7.0 0.00 0.00 0.00 42 1011.6
20260505163217 78 232 2.0 7.0 0.00 0.00 0.00 41 1011.6
20260505162721 78 245 2.0 6.0 0.00 0.00 0.00 40 1011.7
20260505162218 78 213 0.0 6.0 0.00 0.00 0.00 43 1011.8
20260505161719 77 216 2.0 6.0 0.00 0.00 0.00 45 1011.9
20260505161217 77 271 1.0 5.0 0.00 0.00 0.00 43 1011.9
20260505160718 77 197 2.0 5.0 0.00 0.00 0.00 44 1011.9
20260505160218 77 192 2.0 3.0 0.00 0.00 0.00 45 1011.9
20260505153218 76 204 2.0 3.0 0.00 0.00 0.00 46 1012.1
20260505152718 75 233 2.0 6.0 0.00 0.00 0.00 45 1012.0
20260505152219 75 274 2.0 6.0 0.00 0.00 0.00 45 1012.0
20260505151718 75 217 1.0 5.0 0.00 0.00 0.00 46 1011.9
20260505151218 75 150 2.0 5.0 0.00 0.00 0.00 50 1011.9
20260505150718 74 198 1.0 3.0 0.00 0.00 0.00 48 1011.9
20260505150218 74 198 1.0 3.0 0.00 0.00 0.00 48 1012.0
20260505140218 70 200 0.0 2.0 0.00 0.00 0.00 54 1012.1
20260505130221 64 165 0.0 3.0 0.00 0.00 0.00 61 1012.7
20260505124722 62 182 1.0 3.0 0.00 0.00 0.00 65 1012.6
20260505124221 62 182 1.0 3.0 0.00 0.00 0.00 66 1012.6